Regional Weather Roundup
Issued by NWS Midland/Odessa, TX

Home | Current Version | Previous Version | Text Only | Print | Product List | Glossary On
Versions: 1 2 3 4 5 6 7 8 9 10 11 12 13 14 15 16 17 18 19 20 21 22 23 24 25 26 27 28 29 30 31 32 33 34 35 36 37 38 39 40 41 42 43 44 45 46 47 48 49 50
000
ASUS44 KMAF 250110
RWRMAF
MIDLAND AREA WEATHER ROUNDUP
NATIONAL WEATHER SERVICE MIDLAND TX
800 PM CDT TUE MAY 24 2016

...IN SOUTHWEST TEXAS AND SOUTHEAST NEW MEXICO...

CITY           SKY/WX    TMP DP  RH WIND       PRES   REMARKS
ALPINE         CLOUDY    82  28  14 S8        30.08R
ANDREWS        FAIR      87  37  17 CALM      29.89S
ARTESIA        SUNNY     90  21   8 SW24      29.88R
BIG SPRING     CLOUDY    82  56  42 SE22      29.88R
CARLSBAD       CLOUDY    88  12   6 W14G24    29.86R
DRYDEN           N/A     87  68  52 SE18      29.89
FORT STOCKTON  PTCLDY    91  27  10 S14       29.89R
GUAD PASS      NOT AVBL
HOBBS          MOCLDY    86  18   8 SW8       29.91S
MARFA          CLOUDY    81  23  11 SW10      30.05F
MIDLAND AIRPK  CLOUDY    91  46  21 S14G26    29.87S
MIDLAND INTL   CLOUDY    90  53  28 S20G30    29.87R
ODESSA         CLOUDY    89  55  31 S22G30    29.88R
PECOS          CLOUDY    92  16   6 SW8       29.84S
PRESIDIO       FAIR      91  21   8 S5        29.90S
SEMINOLE       PTCLDY    87  31  13 SW6       29.90R
SNYDER           N/A     84  67  55 SE16G23   29.87R
WINK           CLOUDY    90  24   9 MISG      29.84R
$$
...OTHER STATIONS IN TEXAS...

CITY           SKY/WX    TMP DP  RH WIND       PRES   REMARKS
ABILENE        CLOUDY    79  72  79 S20G28    29.87F
AMARILLO       CLEAR     80  63  55 SE25G35   29.84R
AUSTIN         MOCLDY    83  74  74 SE15      29.92R
BROWNSVILLE    MOCLDY    83  77  82 SE12      29.91R
CORPUS CHRISTI MOCLDY    82  76  81 SE16      29.90R
DALLAS FTW     CLOUDY    84  71  65 S17G23    29.87F
DEL RIO        CLOUDY    84  75  74 E15       29.86S
EL PASO        MOSUNNY   88   5   4 W18G25    29.92S
HOUSTON INT    MOCLDY    79  74  84 SE16      29.97R
LUBBOCK        MOCLDY    86  24  10 SW17G25   29.87R
SAN ANGELO     CLOUDY    82  69  64 S7        29.89R
SAN ANTONIO    CLOUDY    81  73  76 SE14      29.92S
WACO           MOCLDY    83  72  69 S13       29.90S
WICHITA FALLS  NOT AVBL
$$
...OTHER LOCATIONS IN NEW MEXICO...

CITY           SKY/WX    TMP DP  RH WIND       PRES   REMARKS
ALAMAGORDO     SUNNY     84  16   8 SW14G26   29.93F
ALBUQUERQUE    MOSUNNY   81  10   7 SW15G29   29.91S
CANNON AFB     CLEAR     86  19   8 SW14      29.87R
CLOVIS         CLEAR     84  25  11 SW15      29.87S
HOLLOMAN AFB   SUNNY     87  13   6 SW14G24   29.91S
ROSWELL        SUNNY     90  18   7 SW18      29.84R
RUIDOSO          N/A     70  16  12 SW23G32   30.10S
SANTA FE       SUNNY     76   5   6 SW20G32   29.96S
TRUTH OR CONSE SUNNY     83  14   7 SW20G28   29.93S
TUCUMCARI      SUNNY     87  13   6 SW22G28   29.82R
$$




USA.gov is the U.S. government's official web portal to all federal, state and local government web resources and services.